Flag for Brazil Weather past 2 weeks in Boa Vista, Roraima, Brazil

Now
79 °F

Clear.


Feels Like: 81 °F
Forecast: 74 / 84 °F
Wind: 10 mph from Northeast

Location: Boa Vista Aeropor-To

Current Time: Mar 30, 2015 at 2:20:55 AM

Latest Report: Mar 30, 2015 at 2:00 AM


Visibility: 10 mi

Pressure: 29.89 "Hg

Humidity: 70%

Dew point: 68 °F

Location of Boa VistaLocation

Historic Weather in Boa Vista — Graph

°F

Boa Vista temperature yesterday

Maximum temperature yesterday: 90 °F (at 2:00 PM)
Minimum temperature yesterday: 73 °F (at 8:00 AM)
Average temperature yesterday: 83 °F

Past Weeks' High & Low Weather Summary

 TemperatureHumidityPressure
High95 °F (Mar 19, 3:00 PM)89% (Mar 29, 8:00 AM)30.04 "Hg (Mar 29, 8:00 AM)
Low73 °F (Mar 29, 8:00 AM)32% (Mar 19, 5:00 PM)29.71 "Hg (Mar 19, 4:00 PM)
Average84 °F54%29.88 "Hg
* Reported Mar 15 1:00 AM — Mar 30 1:00 AM, Boa Vista, Weather by CustomWeather, © 2015

Note: Actual official high and low records may vary slightly from our data, if they occured in-between our weather recording intervals... More about our weather records

Advertising

Boa Vista weather history for previous 24 hours

 ConditionsComfort  
Time TempWeatherWind HumidityBarometerVisibility
1:00 AM
Mon, Mar 30
81 °FClear.12 mph66%29.89 "Hg10 mi
12:00 AM82 °FClear.9 mph62%29.92 "Hg10 mi
11:00 PM
Sun, Mar 29
82 °FClear.7 mph66%29.92 "Hg10 mi
10:00 PM84 °FClear.6 mph58%29.92 "Hg10 mi
9:00 PM84 °FClear.5 mph58%29.89 "Hg10 mi
8:00 PM86 °FClear.6 mph55%29.86 "Hg10 mi
7:00 PM86 °FPassing clouds.5 mph55%29.83 "HgN/A
6:00 PM88 °FPartly sunny.9 mph49%29.83 "HgN/A
5:00 PM88 °FPartly sunny.13 mph52%29.80 "HgN/A
4:00 PM90 °FPartly sunny.9 mph46%29.80 "HgN/A
3:00 PM90 °FBroken clouds.18 mph46%29.83 "HgN/A
2:00 PM90 °FPartly sunny.14 mph46%29.89 "HgN/A
1:00 PM88 °FPartly sunny.12 mph52%29.92 "HgN/A
12:00 PM86 °FBroken clouds.21 mph55%29.98 "HgN/A
11:00 AM84 °FBroken clouds.20 mph58%29.98 "HgN/A
10:00 AM81 °FBroken clouds.13 mph70%30.01 "HgN/A
9:00 AM75 °FScattered showers. Broken clouds.9 mph89%30.01 "HgN/A
8:00 AM73 °FLight rain. Partly sunny.9 mph89%30.01 "Hg2 mi
7:00 AM77 °FSunny.13 mph69%29.98 "Hg10 mi
6:00 AM77 °FClear.10 mph74%29.95 "Hg10 mi
5:00 AM79 °FClear.16 mph70%29.92 "Hg10 mi
4:00 AM79 °FClear.23 mph70%29.89 "Hg10 mi
3:00 AM81 °FClear.18 mph66%29.89 "Hg10 mi
2:00 AM81 °FClear.16 mph62%29.89 "Hg10 mi
Weather by CustomWeather, © 2015

See weather overviewHow to use our weather pages